HYPERFIELD-1A (60562 NORAD) Tracking and Keplerian Element Data

This shows tracking and keplerian element data for the satellite.

Feedback or suggestion? Click here.




ElementValue
Catalog60562
NameHYPERFIELD-1A
Epoch Orbit864
Epoch Day286.74746179
Epoch Year2024
RAAN1.4755
Inclination97.4396
Eccentricity0.0005423
Argument of Perigee320.0398
Mean Anonmoly40.0437
Mean Motion15.19792742
Decay Rate0.00013723
L11 60562U 24149CY 24286.74746179 .00013723 00000+0 64324-3 0 9993
L22 60562 97.4396 1.4755 0005423 320.0398 40.0437 15.19792742 8643



Live tracking and technical data element details for HYPERFIELD-1A (NORAD 60562). HYPERFIELD-1A can be tracked NOW for your location showing map with azimuth and elevation plus other details from your city location.







IsCatalogInMostPopularTable: catalog: 60562, numindb: 6
Update: records affected: 1



GetName: 60562 HYPERFIELD-1A

Hit Count: updated at: Wed, 04 Dec 2024 19:00:08 GMT